Showing default

AETHER-1, 58281

Orbit data source: Space-Track

AETHER-1, 58281 is a payload satellite owned by Kepler Comms (CA) in SSO that was launched on Sat, 11 Nov 2023 UTC via an FALCON 9 launch vehicle from the Air Force Western Test Range (AFWTR). Payload-class satellites include a variety of spacecraft equipped with specific instruments for various scientific and technological missions. These include communications satellites like Starlink; space stations such as the ISS; scientific satellites like the Hubble; Earth observation satellites from companies like Planet Labs, Umbra, and HawkEye 360; GPS; miniature CubeSats for education and research; and military/defense satellites.

Loading next visibility...
Identifier
58281, 2023-174AB
Orbit
SSO
Country
Flag of CACA
Related business
Manufacturer
KEPLER/UTIAS
Mission
Operational Commercial Communications
Bus & Motor
CUBESAT 6U, Unknown motor
Mass
15 kg wet, 15 kg dry
Launch date (UTC)
2023-11-11 (2 years ago)
Launch vehicle
FALCON 9
Launch site
Air Force Western Test Range (AFWTR)
Object type
Payload
Rocket body
Debris
Shape & HBR
Box + 2 Pan, 0.3 m
Radar Cross Section
0.109 m², Medium (>0.1 m² and < 1m²)

Expand to show TLE details & history
Last TLE update: 23 hours ago

TLE from 23 hours ago
0 AETHER-1
1 58281U 23174AB  25312.65374705  .00062468  00000-0  13852-2 0  9998
2 58281  97.4055  33.2362 0006284 220.1383 139.9402 15.43509380111597
Epoch: 2025-11-08T15:41Z
TLE epoch observation values (Epoch: 2025-11-08T15:41:23.745Z)
Latitude
0.00007°
Longitude
109.80699°
Altitude
442.163 km
Speed
7.645 km/s
True Right ascension
02h 12m 56s
True Declination
0° 00' 00"
Sunlit
Object was in full shadow at epoch
Visualization orbit readout
Latitude
Unknown
Longitude
Unknown
Altitude
Unknown
Speed
Unknown
Apparent Right ascension
Unknown
Apparent Declination
Unknown
Sunlit
N/A
Visualization observer readout
Local Sidereal Time
10:28:11
Azimuth
Unknown
Elevation
Unknown
Doppler factor
Unknown
Orbital elements
Apogee altitude
436.976 km
Perigee altitude
428.416 km
Semi-major axis
6,810.833 km
Eccentricity
0.00063
Inclination
97.4055°
RAAN
33.2362°
Arg. of periapsis
220.1383°
True anomaly
139.98652°
Mean anomaly
139.9402°
Eccentric anomaly
139.96336°
Mean motion
3.86138 °/min
Orbital period
93.23 mins
BSTAR
0.0013852
Loading maneuver chart data...
Computing Atmospheric mass density...
Loading historical data...
Loading historical data...
Loading historical data...
Loading historical data...
Loading historical data...
Loading historical data...
Loading historical data...

Documentation

Showing up to 5 results
|